Location: Recife
(8.0585°S, 34.8848°W)
Time: 20:31:54
(UTC-03:00)

A-11 Canister half - Pass Details

Date: 23 April 2026
Orbit: 1523 x 1684 km, 47.3° (Epoch: 16 May)

Event Time Altitude Azimuth Distance (km) Brightness Sun altitude
Rises 20:15:34 0° 247° (WSW) 4,733 12.1 -45.0°
Reaches altitude 10° 20:19:28 10° 261° (W) 3,770 11.5 -45.9°
Maximum altitude 20:26:31 23° 309° (NW) 2,903 10.7 -47.7°
Drops below altitude 10° 20:33:46 10° 358° (N) 3,855 11.1 -49.4°
Enters shadow 20:34:08 - 359° (N) 3,938 11.2 -49.5°
Sets 20:37:52 0° 12° (NNE) 4,864 - -50.4°
